Airfield :
LOGIN :

Register | Disclaimer

   EN    FR    IT 

 










Legend :    VFR   Marginal VFR   IFR   Intensive IFR   Very Intensive IFR
Visi :
Ceiling :
>= 8 km
>= 3000ft
5 to 8 km
1000 to 3000 ft
1500m to 5 km
500 to 1000 ft
800 to 1500m
200 to 500 ft
< 800m
< 200 ft
Symbols :   Thunderstorms  Fog  Heavy snow  Heavy precipitations  Wind > 20 kt
SIGMETs :     Misc.  Thunderstorms  Icing  Turbulence  Mountain Waves  Volcanic Ashes






- Airport Elevation : 1455 ft


ETIH - Hohenfels Army Air Field

CURRENT METAR :
  • 190456Z AUTO 00000KT 9999 CLR M01/M04 A3012 RMK AO2 SLP226 T10131045 $

EXPIRED METARs :
  • 190356Z AUTO 21004KT 9999 OVC100 00/M04 A3013 RMK AO2 SLP227 T10051039 $
  • 190256Z AUTO 22006KT 9999 OVC055 00/M03 A3014 RMK AO2 SLP231 T00021034 57009 $

Expired Forecast.



MET'MAP, your aeronautical weather chart ! - Copyright ORBIFLY December 2007 - Disclaimer

ORBIFLY MET'MAP TEAM :

Programming & Development : Alexandra Zaïnal
Concept & original design : Baudouin d'Aumeries
Assistance for programming : Marc-Olivier Méhu
Technical & hardware support : Manuel Goepfert

Contact : metmap@orbifly.com




SOURCES & CREDITS :

   NOAA